H1 CPF 2 NER 2022 8 14 9 226 01 glonass138 H2 1805301 9138 43508 2022 8 14 0 0 0 2022 8 17 23 45 0 900 1 1 0 0 0 1 H9 10 0 59805 0.00000 0 -23885266.285 8946879.770 899885.643 10 0 59805 900.00000 0 -23535958.146 8980132.904 4101188.263 10 0 59805 1800.00000 0 -22839921.852 8808925.701 7222953.364 10 0 59805 2700.00000 0 -21837245.770 8392920.232 10204648.530 10 0 59805 3600.00000 0 -20577313.733 7701354.660 12988463.642 10 0 59805 4500.00000 0 -19116697.130 6714590.617 15520426.645 10 0 59805 5400.00000 0 -17516766.625 5425197.798 17751444.554 10 0 59805 6300.00000 0 -15841123.418 3838529.392 19638250.085 10 0 59805 7200.00000 0 -14152957.235 1972763.261 21144236.048 10 0 59805 8100.00000 0 -12512441.083 -141594.183 22240162.010 10 0 59805 9000.00000 0 -10974270.981 -2462722.187 22904720.067 10 0 59805 9900.00000 0 -9585452.877 -4938977.241 23124949.130 10 0 59805 10800.00000 0 -8383428.482 -7510801.718 22896489.897 10 0 59805 11700.00000 0 -7394617.792 -10112971.896 22223675.476 10 0 59805 12600.00000 0 -6633438.793 -12677093.420 21119455.474 10 0 59805 13500.00000 0 -6101845.093 -15134241.919 19605154.401 10 0 59805 14400.00000 0 -5789400.741 -17417640.073 17710068.131 10 0 59805 15300.00000 0 -5673889.135 -19465260.383 15470905.254 10 0 59805 16200.00000 0 -5722430.532 -21222245.672 12931083.139 10 0 59805 17100.00000 0 -5893061.208 -22643046.360 10139891.350 10 0 59805 18000.00000 0 -6136707.707 -23693184.925 7151538.041 10 0 59805 18900.00000 0 -6399472.620 -24350573.306 4024097.381 10 0 59805 19800.00000 0 -6625134.835 -24606327.522 818378.387 10 0 59805 20700.00000 0 -6757757.726 -24465044.798 -2403262.453 10 0 59805 21600.00000 0 -6744293.853 -23944531.277 -5578141.097 10 0 59805 22500.00000 0 -6537074.590 -23074991.608 -8644473.767 10 0 59805 23400.00000 0 -6096077.900 -21897714.827 -11542587.752 10 0 59805 24300.00000 0 -5390876.786 -20463312.159 -14216090.577 10 0 59805 25200.00000 0 -4402184.586 -18829581.527 -16612973.912 10 0 59805 26100.00000 0 -3122930.514 -17059089.436 -18686629.974 10 0 59805 27000.00000 0 -1558818.923 -15216572.632 -20396760.265 10 0 59805 27900.00000 0 271652.285 -13366269.302 -21710158.908 10 0 59805 28800.00000 0 2337715.630 -11569292.191 -22601355.445 10 0 59805 29700.00000 0 4597379.113 -9881153.891 -23053105.110 10 0 59805 30600.00000 0 6998949.168 -8349547.624 -23056717.637 10 0 59805 31500.00000 0 9482968.221 -7012475.863 -22612218.883 10 0 59805 32400.00000 0 11984486.443 -5896804.037 -21728342.827 10 0 59805 33300.00000 0 14435573.386 -5017298.581 -20422354.664 10 0 59805 34200.00000 0 16767965.214 -4376188.123 -18719708.923 10 0 59805 35100.00000 0 18915737.769 -3963264.580 -16653549.563 10 0 59805 36000.00000 0 20817894.657 -3756518.313 -14264061.908 10 0 59805 36900.00000 0 22420763.037 -3723279.170 -11597689.134 10 0 59805 37800.00000 0 23680097.906 -3821814.087 -8706228.510 10 0 59805 38700.00000 0 24562807.768 -4003312.827 -5645824.877 10 0 59805 39600.00000 0 25048230.315 -4214177.304 -2475880.961 10 0 59805 40500.00000 0 25128905.590 -4398517.192 742094.377 10 0 59805 41400.00000 0 24810815.034 -4500746.009 3945677.619 10 0 59805 42300.00000 0 24113077.070 -4468167.730 7072738.627 10 0 59805 43200.00000 0 23067112.627 -4253444.448 10062641.888 10 0 59805 44100.00000 0 21715315.969 -3816840.724 12857417.835 10 0 59805 45000.00000 0 20109286.792 -3128149.692 15402881.727 10 0 59805 45900.00000 0 18307697.654 -2168219.385 17649678.810 10 0 59805 46800.00000 0 16373885.774 -930014.440 19554236.019 10 0 59805 47700.00000 0 14373269.510 580832.214 21079602.292 10 0 59805 48600.00000 0 12370696.873 2346001.924 22196161.863 10 0 59805 49500.00000 0 10427835.970 4335009.266 22882207.249 10 0 59805 50400.00000 0 8600715.533 6506237.219 23124361.201 10 0 59805 51300.00000 0 6937517.219 8808447.098 22917839.647 10 0 59805 52200.00000 0 5476710.992 11182702.133 22266550.457 10 0 59805 53100.00000 0 4245610.766 13564626.174 21183025.699 10 0 59805 54000.00000 0 3259410.034 15886905.080 19688188.094 10 0 59805 54900.00000 0 2520737.427 18081927.859 17810955.257 10 0 59805 55800.00000 0 2019750.615 20084458.354 15587688.416 10 0 59805 56700.00000 0 1734764.392 21834226.585 13061495.271 10 0 59805 57600.00000 0 1633386.461 23278331.631 10281399.518 10 0 59805 58500.00000 0 1674112.953 24373355.307 7301392.515 10 0 59805 59400.00000 0 1808316.051 25087097.588 4179385.047 10 0 59805 60300.00000 0 1982539.311 25399860.343 976079.455 10 0 59805 61200.00000 0 2141002.890 25305224.720 -2246215.540 10 0 59805 62100.00000 0 2228211.658 24810288.858 -5424803.718 10 0 59805 63000.00000 0 2191554.563 23935355.508 -8497829.362 10 0 59805 63900.00000 0 1983783.837 22713082.469 -11405489.400 10 0 59805 64800.00000 0 1565267.639 21187131.645 -14091205.127 10 0 59805 65700.00000 0 905919.409 19410373.888 -16502729.804 10 0 59805 66600.00000 0 -13278.943 17442725.548 -18593169.797 10 0 59805 67500.00000 0 -1199225.491 15348708.202 -20321899.010 10 0 59805 68400.00000 0 -2646163.768 13194834.489 -21655348.721 10 0 59805 69300.00000 0 -4335688.505 11046930.038 -22567657.573 10 0 59805 70200.00000 0 -6237292.113 8967503.712 -23041169.550 10 0 59805 71100.00000 0 -8309429.508 7013275.977 -23066770.848 10 0 59805 72000.00000 0 -10501057.080 5232968.203 -22644059.774 10 0 59805 72900.00000 0 -12753581.844 3665444.300 -21781347.035 10 0 59805 73800.00000 0 -15003139.727 2338281.040 -20495487.043 10 0 59805 74700.00000 0 -17183108.169 1266825.378 -18811543.963 10 0 59805 75600.00000 0 -19226748.608 453776.415 -16762299.336 10 0 59805 76500.00000 0 -21069869.010 -110692.266 -14387611.008 10 0 59805 77400.00000 0 -22653395.681 -448276.746 -11733635.920 10 0 59805 78300.00000 0 -23925747.505 -591382.613 -8851931.846 10 0 59805 79200.00000 0 -24844913.883 -581510.741 -5798455.470 10 0 59805 80100.00000 0 -25380149.973 -467258.166 -2632476.273 10 0 59805 81000.00000 0 -25513218.872 -302019.332 584572.681 10 0 59805 81900.00000 0 -25239129.226 -141485.406 3790284.841 10 0 59805 82800.00000 0 -24566337.826 -41047.730 6922487.931 10 0 59805 83700.00000 0 -23516409.131 -53215.374 9920446.066 10 0 59805 84600.00000 0 -22123146.226 -225156.101 12726033.068 10 0 59805 85500.00000 0 -20431229.724 -596464.607 15284854.388 10 0 59806 0.00000 0 -18494421.697 -1197252.401 17547296.142 10 0 59806 900.00000 0 -16373408.336 -2046640.465 19469482.589 10 0 59806 1800.00000 0 -14133373.661 -3151717.810 21014121.045 10 0 59806 2700.00000 0 -11841401.366 -4507011.564 22151222.571 10 0 59806 3600.00000 0 -9563814.837 -6094491.182 22858681.896 10 0 59806 4500.00000 0 -7363564.284 -7884108.218 23122706.989 10 0 59806 5400.00000 0 -5297768.980 -9834850.624 22938089.968 10 0 59806 6300.00000 0 -3415515.985 -11896269.272 22308314.004 10 0 59806 7200.00000 0 -1756006.272 -14010414.654 21245493.765 10 0 59806 8100.00000 0 -347124.760 -16114104.562 19770149.921 10 0 59806 9000.00000 0 795506.666 -18141429.560 17910821.172 10 0 59806 9900.00000 0 1668953.943 -20026392.648 15703520.353 10 0 59806 10800.00000 0 2282856.020 -21705573.511 13191044.096 10 0 59806 11700.00000 0 2658775.550 -23120706.235 10422148.484 10 0 59806 12600.00000 0 2829042.624 -24221062.272 7450606.029 10 0 59806 13500.00000 0 2835140.631 -24965538.309 4334161.812 10 0 59806 14400.00000 0 2725702.889 -25324360.601 1133408.970 10 0 59806 15300.00000 0 2554205.345 -25280333.199 -2089394.253 10 0 59806 16200.00000 0 2376453.925 -24829576.726 -5271542.312 10 0 59806 17100.00000 0 2247973.998 -23981725.749 -8351110.502 10 0 59806 18000.00000 0 2221413.760 -22759575.889 -11268168.428 10 0 59806 18900.00000 0 2344072.871 -21198195.188 -13965954.230 10 0 59806 19800.00000 0 2655662.300 -19343537.024 -16391985.799 10 0 59806 20700.00000 0 3186391.368 -17250613.072 -18499086.566 10 0 59806 21600.00000 0 3955463.967 -14981303.351 -20246305.536 10 0 59806 22500.00000 0 4970048.358 -12601895.489 -21599713.533 10 0 59806 23400.00000 0 6224764.692 -10180456.676 -22533060.297 10 0 59806 24300.00000 0 7701712.420 -7784148.278 -23028280.113 10 0 59806 25200.00000 0 9371036.885 -5476595.199 -23075836.725 10 0 59806 26100.00000 0 11192011.641 -3315419.391 -22674901.500 10 0 59806 27000.00000 0 13114591.432 -1350039.584 -21833362.047 10 0 59806 27900.00000 0 15081371.096 380172.143 -20567661.741 10 0 59806 28800.00000 0 17029868.663 1847301.427 -18902473.723 10 0 59806 29700.00000 0 18895037.437 3035813.100 -16870216.064 10 0 59806 30600.00000 0 20611902.353 3942946.443 -14510417.667 10 0 59806 31500.00000 0 22118210.621 4578569.457 -11868947.358 10 0 59806 32400.00000 0 23356986.121 4964500.170 -8997121.138 10 0 59806 33300.00000 0 24278881.008 5133325.129 -5950704.868 10 0 59806 34200.00000 0 24844226.353 5126766.260 -2788831.824 10 0 59806 35100.00000 0 25024696.304 4993666.077 427143.940 10 0 59806 36000.00000 0 24804516.297 4787677.189 3634836.154 10 0 59806 36900.00000 0 24181164.965 4564754.210 6772033.735 10 0 59806 37800.00000 0 23165540.498 4380554.461 9777903.659 10 0 59806 38700.00000 0 21781584.558 4287857.421 12594166.178 10 0 59806 39600.00000 0 20065379.431 4334111.985 15166219.741 10 0 59806 40500.00000 0 18063755.979 4559215.108 17444194.232 10 0 59806 41400.00000 0 15832470.092 4993615.597 19383912.638 10 0 59806 42300.00000 0 13434023.223 5656823.144 20947742.996 10 0 59806 43200.00000 0 10935217.085 6556385.814 22105324.767 10 0 59806 44100.00000 0 8404543.396 7687379.652 22834156.115 10 0 59806 45000.00000 0 5909516.334 9032432.854 23120031.081 10 0 59806 45900.00000 0 3514057.569 10562284.748 22957318.414 10 0 59806 46800.00000 0 1276041.505 12236857.723 22349076.594 10 0 59806 47700.00000 0 -754898.059 14006798.794 21307002.429 10 0 59806 48600.00000 0 -2539209.479 15815427.968 19851213.629 10 0 59806 49500.00000 0 -4048837.031 17601013.372 18009868.657 10 0 59806 50400.00000 0 -5268148.394 19299279.137 15818630.242 10 0 59806 51300.00000 0 -6194337.567 20846041.878 13319981.925 10 0 59806 52200.00000 0 -6837286.725 22179865.767 10562409.912 10 0 59806 53100.00000 0 -7218893.066 23244624.710 7599465.414 10 0 59806 54000.00000 0 -7371889.414 23991863.686 4488725.220 10 0 59806 54900.00000 0 -7338208.755 24382859.184 1290670.581 10 0 59806 55800.00000 0 -7166962.384 24390291.034 -1932493.465 10 0 59806 56700.00000 0 -6912118.003 23999454.194 -5118054.784 10 0 59806 57600.00000 0 -6629977.026 23208958.346 -8204022.364 10 0 59806 58500.00000 0 -6376559.072 22030884.954 -11130341.069 10 0 59806 59400.00000 0 -6205005.648 20490394.473 -13840068.310 10 0 59806 60300.00000 0 -6163114.209 18624799.739 -16280488.840 10 0 59806 61200.00000 0 -6291108.071 16482144.386 -18404145.190 10 0 59806 62100.00000 0 -6619737.531 14119345.926 -20169763.271 10 0 59806 63000.00000 0 -7168793.197 11599981.451 -21543055.041 10 0 59806 63900.00000 0 -7946094.892 8991808.894 -22497382.699 10 0 59806 64800.00000 0 -8946999.140 6364127.464 -23014271.943 10 0 59806 65700.00000 0 -10154446.270 3785087.364 -23083764.899 10 0 59806 66600.00000 0 -11539545.266 1319060.677 -22704606.499 10 0 59806 67500.00000 0 -13062671.950 -975817.726 -21884261.389 10 0 59806 68400.00000 0 -14675034.467 -3049837.758 -20638761.633 10 0 59806 69300.00000 0 -16320640.548 -4863540.322 -18992388.659 10 0 59806 70200.00000 0 -17938584.190 -6389107.522 -16977195.971 10 0 59806 71100.00000 0 -19465556.138 -7611260.706 -14632382.077 10 0 59806 72000.00000 0 -20838473.093 -8527630.570 -12003525.936 10 0 59806 72900.00000 0 -21997115.666 -9148585.775 -9141699.781 10 0 59806 73800.00000 0 -22886664.712 -9496529.067 -6102476.482 10 0 59806 74700.00000 0 -23460029.814 -9604692.070 -2944850.781 10 0 59806 75600.00000 0 -23679872.450 -9515480.912 269904.712 10 0 59806 76500.00000 0 -23520239.091 -9278443.486 3479426.571 10 0 59806 77400.00000 0 -22967735.777 -8947944.918 6621467.559 10 0 59806 78300.00000 0 -22022194.918 -8580649.904 9635100.264 10 0 59806 79200.00000 0 -20696806.266 -8232918.482 12461894.156 10 0 59806 80100.00000 0 -19017706.337 -7958225.270 15047043.453 10 0 59806 81000.00000 0 -17023043.065 -7804711.042 17340424.296 10 0 59806 81900.00000 0 -14761554.197 -7812969.800 19297561.298 10 0 59806 82800.00000 0 -12290718.037 -8014164.563 20880485.224 10 0 59806 83700.00000 0 -9674552.697 -8428551.272 22058465.828 10 0 59806 84600.00000 0 -6981154.374 -9064473.242 22808606.231 10 0 59806 85500.00000 0 -4280075.947 -9917868.937 23116287.653 10 0 59807 0.00000 0 -1639653.821 -10972314.541 22975456.217 10 0 59807 900.00000 0 875608.514 -12199601.266 22388746.007 10 0 59807 1800.00000 0 3207489.039 -13560823.049 21367435.928 10 0 59807 2700.00000 0 5306231.794 -15007932.369 19931240.342 10 0 59807 3600.00000 0 7132373.864 -16485699.027 18107936.742 10 0 59807 4500.00000 0 8658140.642 -17933991.466 15932836.684 10 0 59807 5400.00000 0 9868351.394 -19290285.829 13448109.211 10 0 59807 6300.00000 0 10760797.661 -20492297.970 10701968.890 10 0 59807 7200.00000 0 11346078.865 -21480627.945 7747743.534 10 0 59807 8100.00000 0 11646902.438 -22201305.446 4642839.246 10 0 59807 9000.00000 0 11696878.340 -22608128.364 1447622.745 10 0 59807 9900.00000 0 11538859.339 -22664694.909 -1775756.967 10 0 59807 10800.00000 0 11222897.905 -22346042.510 -4964584.113 10 0 59807 11700.00000 0 10803907.030 -21639823.092 -8056804.380 10 0 59807 12600.00000 0 10339124.971 -20546964.050 -10992240.897 10 0 59807 13500.00000 0 9885492.411 -19081786.021 -13713773.315 10 0 59807 14400.00000 0 9497054.210 -17271571.693 -16168456.120 10 0 59807 15300.00000 0 9222496.732 -15155603.266 -18308553.642 10 0 59807 16200.00000 0 9102925.857 -12783708.656 -20092471.166 10 0 59807 17100.00000 0 9169980.249 -10214377.238 -21485563.933 10 0 59807 18000.00000 0 9444360.006 -7512523.999 -22460808.367 10 0 59807 18900.00000 0 9934832.979 -4746995.510 -22999322.907 10 0 59807 19800.00000 0 10637760.701 -1987921.578 -23090728.919 10 0 59807 20700.00000 0 11537163.741 695977.206 -22733345.290 10 0 59807 21600.00000 0 12605323.616 3240014.523 -21934213.639 10 0 59807 22500.00000 0 13803895.735 5585987.544 -20708954.224 10 0 59807 23400.00000 0 15085486.490 7684349.361 -19081455.862 10 0 59807 24300.00000 0 16395628.114 9496015.589 -17083406.208 10 0 59807 25200.00000 0 17675068.388 10993731.413 -14753671.724 10 0 59807 26100.00000 0 18862278.993 12162943.706 -12137539.485 10 0 59807 27000.00000 0 19896077.263 13002143.606 -9285835.601 10 0 59807 27900.00000 0 20718251.277 13522667.045 -6253937.285 10 0 59807 28800.00000 0 21276078.071 13747963.219 -3100697.831 10 0 59807 29700.00000 0 21524629.220 13712363.333 112694.675 10 0 59807 30600.00000 0 21428766.964 13459402.686 3323902.810 10 0 59807 31500.00000 0 20964746.948 13039767.759 6470646.314 10 0 59807 32400.00000 0 20121360.172 12508955.585 9491906.386 10 0 59807 33300.00000 0 18900565.969 11924744.502 12329104.535 10 0 59807 34200.00000 0 17317589.126 11344583.134 14927233.313 10 0 59807 35100.00000 0 15400476.505 10823007.638 17235917.424 10 0 59807 36000.00000 0 13189130.982 10409195.900 19210385.127 10 0 59807 36900.00000 0 10733862.173 10144761.461 20812331.643 10 0 59807 37800.00000 0 8093513.285 10061879.825 22010658.448 10 0 59807 38700.00000 0 5333240.819 10181825.892 22782074.711 10 0 59807 39600.00000 0 2522038.248 10513984.127 23111549.579 10 0 59807 40500.00000 0 -269894.863 11055373.437 22992606.838 10 0 59807 41400.00000 0 -2973830.355 11790707.382 22427456.150 10 0 59807 42300.00000 0 -5525125.584 12692988.093 21426957.995 10 0 59807 43200.00000 0 -7865666.663 13724610.111 20010422.396 10 0 59807 44100.00000 0 -9946040.170 14838928.941 18205244.443 10 0 59807 45000.00000 0 -11727343.529 15982229.603 16046382.696 10 0 59807 45900.00000 0 -13182559.120 17096013.381 13575689.558 10 0 59807 46800.00000 0 -14297435.052 18119507.265 10841105.585 10 0 59807 47700.00000 0 -15070835.929 18992290.715 7895732.681 10 0 59807 48600.00000 0 -15514549.158 19656928.914 4796803.675 10 0 59807 49500.00000 0 -15652555.236 20061500.956 1604568.133 10 0 59807 50400.00000 0 -15519793.145 20161915.327 -1618883.589 10 0 59807 51300.00000 0 -15160473.520 19923913.803 -4810834.656 10 0 59807 52200.00000 0 -14626011.648 19324677.821 -7909169.994 10 0 59807 53100.00000 0 -13972668.564 18353968.178 -10853593.453 10 0 59807 54000.00000 0 -13259001.104 17014748.752 -13586809.250 10 0 59807 54900.00000 0 -12543229.815 15323266.834 -16055643.775 10 0 59807 55800.00000 0 -11880637.067 13308585.870 -18212085.119 10 0 59807 56700.00000 0 -11321106.175 11011589.596 -20014219.675 10 0 59807 57600.00000 0 -10906906.141 8483498.902 -21427047.454 10 0 59807 58500.00000 0 -10670815.852 5783963.287 -22423160.319 10 0 59807 59400.00000 0 -10634666.949 2978806.470 -22983270.389 10 0 59807 60300.00000 0 -10808366.603 137519.995 -23096578.904 10 0 59807 61200.00000 0 -11189440.989 -2669390.920 -22760979.006 10 0 59807 62100.00000 0 -11763118.206 -5373099.299 -21983089.218 10 0 59807 63000.00000 0 -12502946.611 -7909074.768 -20778117.546 10 0 59807 63900.00000 0 -13371922.086 -10219520.224 -19169559.359 10 0 59807 64800.00000 0 -14324076.355 -12255526.621 -17188735.257 10 0 59807 65700.00000 0 -15306459.271 -13978857.496 -14874178.117 10 0 59807 66600.00000 0 -16261431.401 -15363290.275 -12270881.330 10 0 59807 67500.00000 0 -17129170.356 -16395460.058 -9429422.872 10 0 59807 68400.00000 0 -17850285.308 -17075172.279 -6404982.140 10 0 59807 69300.00000 0 -18368429.610 -17415172.734 -3256268.722 10 0 59807 70200.00000 0 -18632801.541 -17440386.214 -44383.825 10 0 59807 71100.00000 0 -18600427.845 -17186657.034 3168363.534 10 0 59807 72000.00000 0 -18238133.895 -16699045.574 6319662.567 10 0 59807 72900.00000 0 -17524117.443 -16029753.337 9348405.627 10 0 59807 73800.00000 0 -16449059.486 -15235764.495 12195868.842 10 0 59807 74700.00000 0 -15016725.198 -14376303.493 14806845.660 10 0 59807 75600.00000 0 -13244029.112 -13510215.797 17130711.820 10 0 59807 76500.00000 0 -11160560.950 -12693381.849 19122401.551 10 0 59807 77400.00000 0 -8807590.970 -11976272.703 20743276.619 10 0 59807 78300.00000 0 -6236595.098 -11401749.720 21961872.017 10 0 59807 79200.00000 0 -3507359.895 -11003200.426 22754504.427 10 0 59807 80100.00000 0 -685744.815 -10803088.605 23105732.030 10 0 59807 81000.00000 0 2158806.804 -10811979.444 23008657.049 10 0 59807 81900.00000 0 4955906.132 -11028080.844 22465065.089 10 0 59807 82800.00000 0 7636898.390 -11437320.626 21485398.257 10 0 59807 83700.00000 0 10137473.471 -12013957.027 20088561.962 10 0 59807 84600.00000 0 12400100.183 -12721697.716 18301568.293 10 0 59807 85500.00000 0 14376183.449 -13515281.127 16159021.882 10 0 59808 0.00000 0 16027855.012 -14342454.347 13702457.434 10 0 59808 900.00000 0 17329324.009 -15146265.341 10979539.384 10 0 59808 1800.00000 0 18267728.863 -15867572.090 8043141.876 10 0 59808 2700.00000 0 18843457.881 -16447664.259 4950322.032 10 0 59808 3600.00000 0 19069922.913 -16830885.135 1761209.514 10 0 59808 4500.00000 0 18972796.708 -16967142.723 -1462166.973 10 0 59808 5400.00000 0 18588746.390 -16814202.667 -4657092.703 10 0 59808 6300.00000 0 17963717.016 -16339664.771 -7761395.051 10 0 59808 7200.00000 0 17150838.471 -15522538.165 -10714661.774 10 0 59808 8100.00000 0 16208045.062 -14354347.221 -13459424.737 10 0 59808 9000.00000 0 15195509.335 -12839720.199 -15942285.143 10 0 59808 9900.00000 0 14172999.501 -10996434.791 -18114957.536 10 0 59808 10800.00000 0 13197272.892 -8854917.681 -19935211.834 10 0 59808 11700.00000 0 12319616.019 -6457218.438 -21367694.904 10 0 59808 12600.00000 0 11583635.343 -3855500.282 -22384615.756 10 0 59808 13500.00000 0 11023391.832 -1110110.439 -22966281.461 10 0 59808 14400.00000 0 10661957.562 1712689.691 -23101473.934 10 0 59808 15300.00000 0 10510454.576 4543240.173 -22787660.897 10 0 59808 16200.00000 0 10567615.667 7311139.693 -22031037.626 10 0 59808 17100.00000 0 10819884.695 9947934.213 -20846399.259 10 0 59808 18000.00000 0 11242051.363 12389725.947 -19256846.662 10 0 59808 18900.00000 0 11798392.895 14579595.045 -17293331.916 10 0 59808 19800.00000 0 12444273.887 16469734.298 -14994052.455 10 0 59808 20700.00000 0 13128136.358 18023209.113 -12403705.763 10 0 59808 21600.00000 0 13793795.795 19215270.764 -9572619.121 10 0 59808 22500.00000 0 14382946.126 20034169.526 -6555771.263 10 0 59808 23400.00000 0 14837767.827 20481435.116 -3411724.987 10 0 59808 24300.00000 0 15103529.117 20571614.141 -201491.402 10 0 59808 25200.00000 0 15131070.433 20331476.887 3012652.162 10 0 59808 26100.00000 0 14879067.384 19798727.846 6168367.592 10 0 59808 27000.00000 0 14315976.657 19020275.126 9204461.461 10 0 59808 27900.00000 0 13421582.641 18050132.096 12062067.330 10 0 59808 28800.00000 0 12188079.347 16947039.892 14685782.095 10 0 59808 29700.00000 0 10620641.526 15771910.820 17024734.768 10 0 59808 30600.00000 0 8737460.177 14585199.937 19033567.459 10 0 59808 31500.00000 0 6569239.953 13444314.895 20673310.066 10 0 59808 32400.00000 0 4158178.151 12401172.258 21912132.351 10 0 59808 33300.00000 0 1556466.389 11500002.336 22725959.407 10 0 59808 34200.00000 0 -1175624.154 10775494.053 23098938.971 10 0 59808 35100.00000 0 -3971995.966 10251357.261 23023751.821 10 0 59808 36000.00000 0 -6763224.919 9939362.553 22501759.192 10 0 59808 36900.00000 0 -9479204.084 9838898.837 21542984.029 10 0 59808 37800.00000 0 -12051823.181 9937067.462 20165925.886 10 0 59808 38700.00000 0 -14417573.437 10209309.341 18397212.155 10 0 59808 39600.00000 0 -16519970.167 10620539.275 16271091.442 10 0 59808 40500.00000 0 -18311692.775 11126740.273 13828777.864 10 0 59808 41400.00000 0 -19756353.092 11676951.224 11117657.966 10 0 59808 42300.00000 0 -20829818.117 12215564.347 8190374.933 10 0 59808 43200.00000 0 -21521031.754 12684835.430 5103807.358 10 0 59808 44100.00000 0 -21832300.911 13027500.429 1917962.209 10 0 59808 45000.00000 0 -21779033.891 13189387.068 -1305196.174 10 0 59808 45900.00000 0 -21388942.218 13121909.946 -4502957.783 10 0 59808 46800.00000 0 -20700739.848 12784342.265 -7613094.953 10 0 59808 47700.00000 0 -19762395.152 12145766.699 -10575081.731 10 0 59808 48600.00000 0 -18629010.188 11186621.443 -13331279.864 10 0 59808 49500.00000 0 -17360417.581 9899774.696 -15828067.415 10 0 59808 50400.00000 0 -16018597.329 8291081.036 -18016887.195 10 0 59808 51300.00000 0 -14665023.233 6379395.116 -19855194.183 10 0 59808 52200.00000 0 -13358051.428 4196041.188 -21307283.315 10 0 59808 53100.00000 0 -12150461.324 1783760.055 -22344981.611 10 0 59808 54000.00000 0 -11087252.447 -804823.034 -22948191.597 10 0 59808 54900.00000 0 -10203789.494 -3509146.007 -23105276.009 10 0 59808 55800.00000 0 -9524372.904 -6262992.126 -22813276.917 10 0 59808 56700.00000 0 -9061294.100 -8997012.063 -22077965.760 10 0 59808 57600.00000 0 -8814413.941 -11641381.348 -20913723.869 10 0 59808 58500.00000 0 -8771280.936 -14128483.123 -19343256.337 10 0 59808 59400.00000 0 -8907783.016 -16395505.287 -17397145.170 10 0 59808 60300.00000 0 -9189304.324 -18386844.834 -15113250.567 10 0 59808 61200.00000 0 -9572337.383 -20056220.084 -12535972.133 10 0 59808 62100.00000 0 -10006481.882 -21368403.918 -9715384.383 10 0 59808 63000.00000 0 -10436745.243 -22300506.839 -6706263.257 10 0 59808 63900.00000 0 -10806047.467 -22842757.392 -3567022.635 10 0 59808 64800.00000 0 -11057824.262 -22998748.554 -358581.405 10 0 59808 65700.00000 0 -11138618.366 -22785140.915 2856816.896 10 0 59808 66600.00000 0 -11000549.540 -22230836.116 6016808.942 10 0 59808 67500.00000 0 -10603558.862 -21375656.120 9060117.648 10 0 59808 68400.00000 0 -9917332.427 -20268584.407 11927736.148 10 0 59808 69300.00000 0 -8922823.110 -18965643.336 14564066.909 10 0 59808 70200.00000 0 -7613305.811 -17527496.947 16917994.280 10 0 59808 71100.00000 0 -5994921.079 -16016879.605 18943870.216 10 0 59808 72000.00000 0 -4086683.377 -14495958.052 20602394.548 10 0 59808 72900.00000 0 -1919952.338 -13023736.835 21861373.383 10 0 59808 73800.00000 0 462612.370 -11653615.134 22696341.549 10 0 59808 74700.00000 0 3008570.583 -10431196.630 23091037.376 10 0 59808 75600.00000 0 5657634.066 -9392443.383 23037720.935 10 0 59808 76500.00000 0 8343933.200 -8562250.458 22537329.527 10 0 59808 77400.00000 0 10998525.272 -7953500.634 21599467.095 10 0 59808 78300.00000 0 13552041.615 -7566638.578 20242227.191 10 0 59808 79200.00000 0 15937364.739 -7389782.373 18491852.075 10 0 59808 80100.00000 0 18092224.875 -7399367.877 16382233.585 10 0 59808 81000.00000 0 19961608.335 -7561299.082 13954264.405 10 0 59808 81900.00000 0 21499877.437 -7832556.264 11255051.302 10 0 59808 82800.00000 0 22672513.298 -8163194.280 8337004.875 10 0 59808 83700.00000 0 23457408.318 -8498646.575 5256822.962 10 0 59808 84600.00000 0 23845653.835 -8782237.195 2074387.240 10 0 59808 85500.00000 0 23841789.507 -8957793.872 -1148405.219 99